NOSS 2-2 (E) - Orbit

View from above orbital plane
View from above orbital plane
View from above satellite
View from above satellite

Ground track
Ground track

The orbit data is extracted from the following two-line orbital elements,

1 21809U 91076E   13124.13742754 0.00000200  00000-0  11502-3 0    04
2 21809  63.3750  15.8389 0620000   8.4360 351.5640 13.40721893    01
Epoch (UTC): 04 May 2013 03:17:53
Eccentricity: 0.0620000
inclination: 63.3750°
perigee height: 642 km
apogee height: 1570 km
right ascension of ascending node: 15.8389°
argument of perigee: 8.4360°
revolutions per day: 13.40721893
mean anomaly at epoch: 351.5640°
orbit number at epoch: 0

The dashed part of the orbit path shows where the satellite is in the earth's shadow,  

Developed and maintained by Chris Peat, Heavens-Above GmbH. Please read the updated FAQ before sending e-mail. Imprint. DLR